Regional Weather Roundup
Issued by NWS

Home | Current Version | Previous Version | Text Only | Print | Product List | Glossary Off
Versions: 1 2 3 4 5 6 7 8 9 10 11 12 13 14 15 16 17 18 19 20 21 22 23 24 25 26 27 28 29 30 31 32 33 34 35 36 37 38 39 40 41 42 43 44 45 46 47 48 49 50

000
ASUS43 KFSD 280602
RWRSD

WEATHER ROUNDUP FOR SOUTH DAKOTA
NATIONAL WEATHER SERVICE SIOUX FALLS SD
100 AM CDT SAT MAR 28 2015

NOTE: "FAIR" INDICATES FEW OR NO CLOUDS BELOW 12,000 FEET WITH NO
SIGNIFICANT WEATHER AND/OR OBSTRUCTIONS TO VISIBILITY.


SDZ001>005-009-010-012>017-280700-
NORTHWEST AND NORTH CENTRAL SOUTH DAKOTA

CITY           SKY/WX    TMP DP  RH WIND       PRES   REMARKS
BUFFALO          N/A     44  33  65 SE13      29.88F
FAITH            N/A     38  31  76 S9        29.95S
MOBRIDGE       CLEAR     29  26  89 E9        29.95R WCI  20
$$

SDZ012>016-024>037-041>051-057-063-072>074-280700-
SOUTHWEST AND SOUTH CENTRAL SOUTH DAKOTA

CITY           SKY/WX    TMP DP  RH WIND       PRES   REMARKS
RAPID CTY ARPT CLEAR     44  33  65 NE12      29.96R
PIERRE         PTCLDY    31  28  89 SE7       29.96S WCI  24
CUSTER         CLEAR     43  26  51 N5        30.02F
ELLSWORTH AFB  CLEAR     50  34  54 NE5       29.96R
PHILIP         CLEAR     36  30  79 CALM      29.96R
PINE RIDGE     CLEAR     34  29  82 CALM      29.97R
SPEARFISH      FAIR      45  32  61 S5        29.99S
WINNER         CLOUDY    35  29  78 SE6       29.97R
$$

SDZ004>011-016>023-039-040-280700-
NORTHEAST SOUTH DAKOTA

CITY           SKY/WX    TMP DP  RH WIND       PRES   REMARKS
ABERDEEN       CLOUDY    32  27  81 SE7       30.04S WCI  26
WATERTOWN      CLOUDY    28  24  85 S12       30.05S WCI  18
SISSETON         N/A     29  26  89 S7        30.10R WCI  22
$$

SDZ017-020-022-023-036>040-048>070-280700-
SOUTHEAST SOUTH DAKOTA

CITY           SKY/WX    TMP DP  RH WIND       PRES   REMARKS
SIOUX FALLS    CLOUDY    30  23  75 SE9       30.07F WCI  22
HURON          CLEAR     30  26  85 SE8       30.03S WCI  22
MITCHELL       PTCLDY    29  25  85 SE9       30.04F WCI  20
YANKTON        MOCLDY    30  23  74 E7        30.07F WCI  23
$$

ABBREVIATIONS USED IN REMARKS
   TC - TEMPERATURE IN CELSIUS
  WCI - WIND CHILL INDEX
   HX - HEAT INDEX
  VSB - VISIBILITY




USA.gov is the U.S. government's official web portal to all federal, state and local government web resources and services.